Regional Weather Roundup
Issued by NWS

Home | Current Version | Previous Version | Graphics & Text | Print | Product List | Glossary On
Versions: 1 2 3 4 5 6 7 8 9 10 11 12 13 14 15 16 17 18 19 20 21 22 23 24 25 26 27 28 29 30 31 32 33 34 35 36 37 38 39 40 41 42 43 44 45 46 47 48 49 50
000
ASUS45 KBOI 022110
RWRID
WEATHER ROUNDUP FOR IDAHO
NATIONAL WEATHER SERVICE BOISE ID
300 PM MDT TUE SEP 02 2014

NOTE: "FAIR" INDICATES FEW OR NO CLOUDS BELOW 12000 FEET
WITH NO SIGNIFICANT WEATHER AND/OR OBSTRUCTIONS TO VISIBILITY

IDZ012-014-022200-
SOUTHWEST IDAHO


CITY           SKY/WX    TMP DP  RH WIND       PRES   REMARKS
BOISE          SUNNY     85  34  16 N6        29.84F
CALDWELL       SUNNY     84  41  21 SE7       29.84F
MOUNTAIN HOME  SUNNY     85  34  16 NE6       29.84F
$$

IDZ016-017-022200-
SOUTHCENTRAL IDAHO


CITY           SKY/WX    TMP DP  RH WIND       PRES   REMARKS
BURLEY         SUNNY     79  40  24 VRB3      29.92F
JEROME         SUNNY     78  37  22 W6        29.94F
TWIN FALLS     SUNNY     82  41  23 N10       29.93F
$$

IDZ019>023-022200-
SOUTHEAST IDAHO


CITY           SKY/WX    TMP DP  RH WIND       PRES   REMARKS
IDAHO FALLS    SUNNY     79  37  22 S18G26    29.97F
POCATELLO      SUNNY     81  37  20 W17       29.96F
REXBURG        MOSUNNY   74  39  28 S15       29.97F
$$

IDZ006-010-011-018-031-032-022200-
CENTRAL IDAHO MOUNTAINS


CITY           SKY/WX    TMP DP  RH WIND       PRES   REMARKS
MCCALL         SUNNY     73  32  22 S17G24    29.93F
HAILEY         SUNNY     75  36  23 S12       29.99F
STANLEY          N/A     71  19  14 MISG      30.02F
SALMON         SUNNY     75  43  31 N7        29.81F
CHALLIS        SUNNY     80  19  10 S9        29.88F
$$

IDZ002-004-006-007-026-022200-
NORTHERN IDAHO


CITY           SKY/WX    TMP DP  RH WIND       PRES   REMARKS
LEWISTON       SUNNY     81  45  28 VRB3      29.75F
LOWELL           N/A     84  46  26 N3        29.71F
COEUR D`ALENE  MOSUNNY   72  43  35 SW9       29.77F
MULLAN PASS    PTSUNNY   57  40  52 SW9       29.91F
$$


USA.gov is the U.S. government's official web portal to all federal, state and local government web resources and services.